Location: Unspecified
(50.1700°N, 6.8600°E)
Time: 11:22:39
(UTC+00:00)

Cosmos 2227 Rocket - Pass Details

Date: 24 January 2019
Orbit: 837 x 847 km, 71.0° (Epoch: 22 February)

Event Time Altitude Azimuth Distance (km) Brightness Sun altitude
Exits shadow 05:12:21 11° 338° (NNW) 2,396 4.3 -19.8°
Maximum altitude 05:17:42 54° 54° (NE) 1,031 2.9 -18.9°
Drops below altitude 10° 05:23:15 10° 132° (SE) 2,467 5.5 -18.0°
Sets 05:25:45 0° 137° (SE) 3,399 6.2 -17.6°
